sat.trackr.live / text

‹ back to catalog

STARLINK-32873

NORAD 62857 · 2025-022D

PAYLOAD ACTIVE UNKNOWN

§ Identity

Operator
Country
US
Launch date
2025-02-01
Launch site
AFWTR
Launch vehicle
Mass (kg)
RCS (m²)

Purposes: comms

External: N2YO · Heavens-Above · Gunter

§ Orbital elements

Epoch: 2026-05-25T03:43:19.801056Z

Period
94.10 min
Inclination
53.1588°
Eccentricity
0.0001261
Mean motion
15.30207353 rev/d
Perigee alt
474.3 km
Apogee alt
476.1 km
Semi-major
6,853.3 km
B*
4.4603e-4
RAAN
134.7035°
Arg perigee
98.3405°
Mean anomaly
261.7738°
Rev number
7,360

§ Raw data

STARLINK-328731 62857U 25022D   26145.15509029  .00012877  00000+0  44603-3 0  99922 62857  53.1588 134.7035 0001261  98.3405 261.7738 15.30207353 73601

JSON: /api/v1/satellites/62857 · /tle

For live sub-satellite position, see the globe view (requires WebGL).

§ Visibility from observer

Set your observer location to see the next 7 days of passes ≥ 10°. The values pass through the URL so the page stays shareable.

No JS? Fill the form by hand. The geolocation button needs JavaScript.